RH
55 74 81 67 54 51 51 58 60 55 41 48 47 46 41 36 35 35 36 43 87 80 70 69 69 68 67 67 66 66 70 70 71 74 77 88 86 90 92 83 87 85 85 86
54 72 58 49 47 50 53 59 58 49 43 45 46 46 42 40 47 72 78 81 82 75 72 69 70 70 71 69 68 69 69 70 71 73 75 83 82 90 89 76 80 82 82 87
68 53 44 46 49 51 53 56 56 55 46 49 53 58 48 63 69 70 78 77 76 80 80 74 69 73 72 73 72 68 69 68 72 73 72 73 77 76 84 77 79 77 78 82
52 42 43 48 48 47 60 45 47 51 68 82 53 75 59 86 79 78 79 85 85 79 70 70 70 72 75 78 73 70 66 65 65 72 77 83 87 90 85 82 79 79 80 83
60 58 58 52 46 44 51 50 55 60 71 75 63 76 75 84 87 84 79 74 70 68 67 67 68 67 66 68 68 70 73 72 72 74 80 86 88 86 83 84 84 82 81 82
57 54 51 53 48 50 49 58 65 65 67 95 70 70 70 92 80 85 82 78 76 71 68 66 66 65 68 67 67 64 71 76 78 78 79 80 81 81 82 80 79 78 78 81
68 62 56 49 59 55 59 69 93 95 91 86 57 68 53 94 76 81 82 83 79 80 85 89 91 90 87 87 81 73 76 80 77 76 75 74 74 76 76 76 77 78 79 78
69 65 58 51 59 61 69 70 90 93 87 77 66 72 65 82 81 74 72 77 88 95 92 90 87 87 87 83 79 81 83 82 80 78 76 72 71 74 74 72 72 76 77 77
69 63 47 48 50 49 66 80 69 85 80 90 80 73 80 78 83 83 81 83 85 83 89 92 83 83 85 82 83 88 84 80 79 80 84 79 73 74 76 74 75 78 76 74
58 68 51 50 41 43 54 57 79 90 94 87 78 74 77 92 88 85 89 87 76 84 85 84 78 76 76 77 80 78 79 81 80 81 81 79 80 77 75 74 76 79 77 78
55 58 64 61 57 54 58 70 74 81 82 91 90 69 71 79 83 86 82 87 81 77 85 84 81 80 78 79 74 74 79 82 85 84 78 81 83 80 82 81 81 84 82 81
60 68 80 69 56 55 50 57 56 84 83 90 88 68 63 82 81 76 78 85 79 86 89 88 85 82 83 75 74 78 81 86 87 83 83 85 85 82 85 85 84 85 86 83
72 87 92 75 67 68 64 57 56 71 77 69 88 72 91 88 85 81 85 81 85 87 88 87 86 78 76 78 78 80 83 86 86 85 81 82 83 87 84 89 89 86 86 84
77 78 76 70 62 70 78 68 54 67 93 68 64 64 89 90 86 81 84 84 85 84 79 81 81 77 81 80 83 84 85 86 87 86 88 90 92 92 93 93 93 90 85 85
85 87 81 72 65 65 64 69 68 63 60 77 66 73 69 74 82 82 85 83 81 80 76 75 78 79 79 81 86 86 86 87 90 88 92 94 95 95 94 93 94 93 88 88
77 93 78 69 59 60 70 77 79 76 70 70 70 75 85 87 86 86 78 77 80 79 79 79 89 93 93 92 90 92 90 91 89 91 92 92 94 96 96 96 96 95 93 95
88 96 96 96 72 64 86 80 74 64 65 67 79 68 90 92 86 90 87 82 82 82 83 86 96 98 98 98 98 97 95 88 90 93 92 91 90 90 90 88 88 92 96 94
96 98 96 95 76 93 70 72 72 73 78 91 93 94 91 92 93 93 89 89 85 85 87 96 98 98 96 96 96 96 94 91 92 92 92 90 90 90 88 88 90 91 91 91
72 95 97 96 92 69 68 82 83 80 70 88 96 94 92 89 83 93 85 87 92 95 99 99 99 99 97 97 95 95 95 91 90 94 93 93 91 92 91 92 91 91 92 91
92 83 94 95 94 93 74 82 68 68 83 88 93 87 92 88 99 98 98 93 98 98 97 97 98 97 97 96 93 96 97 93 95 94 93 91 90 91 93 93 91 89 90 91
97 98 95 95 91 80 67 83 72 78 75 87 92 91 88 95 94 94 96 98 97 97 97 97 97 97 98 96 95 96 96 97 96 93 91 91 88 88 92 91 90 88 89 89
85 94 97 95 96 92 83 82 80 86 97 92 96 98 94 97 98 96 94 97 97 97 97 96 95 97 98 97 96 97 96 96 94 95 90 91 90 89 90 91 89 88 88 87
88 88 91 82 86 93 94 93 94 89 98 93 96 98 95 96 95 94 96 96 97 96 96 95 94 95 96 91 92 97 96 91 92 90 92 91 88 89 87 90 91 87 86 86
90 78 85 78 93 94 96 95 93 93 94 98 97 97 90 95 95 96 96 97 96 96 96 95 94 94 88 85 83 82 80 81 86 85 85 86 82 85 88 79 81 86 86 86
88 80 86 91 93 90 92 89 97 93 92 97 96 94 95 93 95 93 96 96 95 94 94 91 82 83 85 80 80 82 76 72 66 72 74 79 80 79 84 88 82 82 82 76
95 91 90 89 85 82 92 95 90 89 90 94 96 98 95 90 95 93 96 96 94 94 89 79 79 80 81 80 85 85 77 72 76 76 81 86 86 87 84 86 84 73 69 66
Wind_Speed
3 4 8 13 7 3 4 1 4 6 11 5 8 9 9 10 8 9 9 4 11 13 12 15 16 15 15 16 15 16 16 16 12 10 9 4 4 4 4 6 6 8 7 8
3 5 10 2 4 4 4 2 6 7 7 6 9 11 9 7 7 10 8 11 11 12 15 15 14 14 15 14 15 16 15 14 12 9 7 4 4 3 3 6 7 8 7 6
7 6 4 6 4 6 5 4 4 7 6 4 9 6 4 8 10 12 15 14 15 14 13 13 14 13 12 14 13 13 13 13 12 13 8 8 5 4 4 8 7 8 8 8
6 6 4 3 5 6 2 7 6 5 4 5 1 8 4 4 10 12 11 11 10 10 12 11 11 12 11 10 9 11 11 11 11 12 10 10 6 7 5 7 7 7 8 6
8 5 5 7 12 6 8 7 7 5 6 0 3 3 3 6 7 6 6 8 9 9 9 9 9 9 9 10 10 9 10 10 10 10 9 8 7 6 8 7 11 9 7 7
6 1 5 8 5 7 1 2 1 3 2 5 11 8 3 4 6 7 6 6 6 7 7 6 8 8 8 8 10 10 13 11 11 11 11 12 13 13 12 13 11 10 9 8
2 6 4 4 4 2 4 4 3 3 1 6 4 3 11 4 6 10 12 6 5 4 4 4 6 7 11 13 12 10 12 12 12 12 13 11 12 12 13 13 11 14 10 9
3 6 6 4 9 8 5 8 6 4 3 4 3 6 7 6 7 9 10 7 4 2 5 6 7 8 8 10 11 13 13 14 14 14 14 11 11 8 9 12 12 10 9 9
4 6 1 4 4 10 4 4 3 4 1 1 5 4 4 8 10 10 9 8 6 3 4 4 7 8 7 9 11 12 13 13 14 13 12 11 11 11 10 11 11 9 11 10
5 5 4 1 2 3 6 8 3 3 3 5 5 5 7 14 15 13 11 12 8 6 6 5 6 7 7 8 8 9 10 11 13 13 11 10 10 10 9 9 11 11 11 11
4 5 4 2 6 8 2 2 4 3 4 5 2 7 7 14 16 14 14 9 8 7 6 5 5 4 6 7 8 9 10 12 11 11 12 11 10 12 11 9 11 11 11 12
4 3 3 8 1 2 4 7 9 5 5 4 3 11 4 5 8 13 10 10 10 8 5 4 3 5 6 8 9 9 10 11 11 11 11 11 11 9 10 10 11 12 12 12
3 3 3 4 2 2 6 5 5 3 3 8 5 7 5 3 6 5 11 10 10 6 5 3 4 6 7 8 9 9 9 9 10 10 10 10 10 10 12 12 13 13 13 12
2 3 6 10 7 4 4 6 6 6 3 4 13 9 3 6 8 8 9 11 9 6 4 4 6 6 8 9 9 10 10 10 10 10 10 10 11 11 11 12 13 12 13 13
6 7 6 7 7 5 4 4 4 7 9 9 12 11 6 4 8 8 10 10 9 6 4 5 5 4 6 8 7 8 8 9 10 10 11 11 10 11 12 12 12 12 12 13
3 4 2 5 4 5 7 5 8 10 12 12 10 10 4 5 11 10 10 9 8 6 5 4 4 4 5 7 8 7 8 8 9 9 10 10 11 10 10 11 11 11 13 13
2 5 3 6 1 2 10 11 17 12 3 4 7 5 8 6 9 9 9 9 8 6 5 4 4 3 3 6 7 7 8 8 8 8 9 11 10 9 9 10 11 13 13 12
6 5 4 1 3 6 2 0 1 6 2 2 2 4 6 8 8 7 4 7 8 7 5 4 2 3 5 5 6 7 7 7 7 8 9 9 9 9 9 11 12 14 12 15
11 5 3 4 6 5 2 5 5 6 5 7 8 9 10 11 6 2 3 3 5 6 4 2 2 3 5 6 5 5 6 7 7 7 8 8 9 10 11 12 13 12 12 14
10 8 7 4 4 8 7 4 4 4 5 6 8 12 13 10 5 4 7 7 6 6 4 6 6 6 6 5 4 4 4 6 7 7 8 8 9 10 11 11 12 10 11 11
4 4 8 4 4 6 3 5 3 6 8 4 6 10 13 7 3 6 11 7 5 6 8 7 6 6 4 4 4 4 3 5 4 6 7 8 10 11 10 9 11 12 12 11
7 7 4 4 3 7 7 4 6 4 2 4 3 3 7 6 10 12 11 11 9 8 8 6 6 5 4 5 4 4 5 4 4 4 8 9 9 9 9 11 11 13 13 13
3 7 7 7 6 1 2 2 3 4 5 3 4 2 6 10 9 12 11 10 7 8 6 5 5 5 5 5 5 4 4 4 4 4 6 8 10 10 10 11 12 11 12 12
3 2 4 3 2 3 4 4 4 3 5 3 3 4 9 12 12 11 9 10 9 7 7 6 6 6 7 6 5 5 5 4 4 6 8 8 8 9 10 9 10 10 11 11
2 6 5 2 2 3 3 4 8 9 9 8 5 5 8 13 11 11 10 10 8 8 6 6 7 7 7 5 6 6 5 3 6 9 9 8 7 9 8 8 10 9 11 14
2 5 5 6 7 3 3 9 10 11 9 8 12 7 6 11 10 11 9 8 8 8 8 7 8 7 6 6 6 6 6 5 6 9 7 6 6 6 6 6 7 18 20 23
Wind_Direction
177 148 200 217 192 132 90 139 272 270 284 292 278 286 286 287 294 304 323 351 69 66 56 47 39 34 33 29 30 27 21 17 21 19 10 13 28 337 6 14 15 23 4 357
48 251 233 174 165 199 241 249 276 286 276 304 290 287 262 263 17 31 349 80 73 61 46 41 34 33 33 31 19 18 19 17 20 17 12 338 326 320 346 9 351 7 349 347
167 228 149 169 190 224 214 190 231 248 295 291 302 295 137 74 54 52 46 62 63 61 50 35 33 28 25 25 19 17 17 14 13 12 9 1 338 353 12 351 336 339 336 330
218 240 210 129 230 196 204 209 224 257 338 288 23 282 81 104 66 57 57 60 67 65 58 45 29 24 21 18 9 16 10 16 15 9 18 20 352 341 335 318 318 322 321 322
234 174 175 210 231 176 245 249 236 238 252 7 257 278 190 187 84 82 82 82 81 77 69 51 34 27 20 18 18 8 0 14 10 6 27 16 354 338 314 325 326 335 330 315
229 226 180 203 195 182 228 317 3 75 128 271 202 188 265 177 140 132 101 102 108 95 79 67 45 5 10 18 22 5 358 5 4 9 19 9 356 344 335 337 337 331 327 324
302 244 244 186 320 296 150 96 322 340 138 239 154 193 259 131 135 157 156 175 172 146 128 106 72 31 355 2 11 4 3 360 359 5 11 0 351 345 335 332 324 323 318 320
200 317 180 184 188 186 179 161 173 243 215 255 298 233 262 141 133 159 170 165 159 129 51 50 25 18 10 359 358 3 5 358 355 355 4 356 350 344 333 326 320 309 308 313
190 265 273 203 169 150 189 177 199 95 5 298 224 286 227 192 180 185 185 196 213 197 88 52 31 28 4 0 3 358 354 357 351 350 350 345 345 339 330 325 314 313 316 313
217 262 214 199 119 74 174 162 86 346 216 234 260 257 233 201 208 192 198 215 215 151 100 61 36 16 359 3 356 354 348 353 345 349 348 340 338 336 326 320 320 325 323 317
178 198 230 121 198 187 150 219 53 143 164 199 278 254 214 207 194 188 202 205 178 124 85 53 35 358 7 2 357 356 352 358 349 347 345 337 344 348 332 336 344 339 327 331
167 175 212 211 256 244 205 216 188 189 220 225 156 269 358 184 169 183 193 113 107 97 88 66 31 13 14 6 8 3 357 3 352 343 347 346 351 338 339 349 349 348 349 346
194 231 224 292 359 270 218 202 184 110 67 228 207 257 44 84 149 130 128 126 119 115 104 83 56 29 13 14 7 4 1 359 349 349 354 346 356 350 2 354 1 358 352 351
173 216 207 248 235 154 213 201 194 176 159 239 232 258 143 149 151 153 141 129 118 113 102 71 42 21 14 14 6 1 360 353 355 351 352 351 353 352 0 3 1 356 353 355
171 248 207 234 231 210 223 200 212 216 224 217 266 235 222 238 180 148 130 125 122 119 89 59 45 22 18 19 11 2 358 355 359 352 355 350 344 2 0 1 358 358 358 358
184 257 294 264 221 234 258 232 228 240 256 253 251 252 129 102 110 137 144 139 139 127 102 75 50 27 28 17 8 357 3 1 5 358 356 345 358 353 360 -0 355 356 -0 4
213 147 201 248 323 8 284 238 220 231 194 225 212 238 145 150 150 144 135 144 141 130 120 77 51 44 28 20 353 356 0 4 2 354 354 3 353 353 1 3 4 4 2 6
179 196 176 251 96 224 248 344 357 229 238 210 101 145 153 127 97 101 100 128 136 140 117 79 60 30 23 16 355 356 2 5 1 1 3 2 350 1 8 18 11 8 1 13
186 163 202 209 199 321 263 210 174 166 255 177 145 132 116 110 83 82 119 97 123 122 127 117 55 41 26 22 7 9 3 11 13 3 4 357 358 6 11 21 16 9 8 10
178 194 192 142 196 220 236 180 140 126 291 158 144 161 146 139 185 238 139 122 110 113 117 93 73 60 53 13 23 14 0 21 15 5 7 2 9 17 12 14 21 14 18 11
160 183 199 170 228 282 190 149 160 102 238 135 141 164 167 188 194 147 131 121 127 129 120 108 95 88 67 42 42 26 7 26 7 4 11 16 21 22 9 9 25 25 24 19
171 170 183 128 192 271 148 96 185 186 48 116 100 145 180 132 132 135 136 139 140 140 122 114 104 85 69 56 44 26 22 347 7 3 29 28 25 19 11 21 26 31 26 25
204 184 178 192 209 31 21 107 123 121 134 154 143 183 143 138 141 141 142 145 152 122 117 110 103 92 65 58 38 25 349 7 9 25 31 39 30 20 18 27 26 34 28 29
203 179 134 111 195 176 143 92 88 86 129 136 113 121 134 130 133 135 137 123 116 117 114 109 99 85 69 49 41 21 22 17 38 52 48 41 40 35 24 33 35 32 34 31
173 131 134 96 125 130 191 153 135 115 114 105 89 104 121 120 121 127 121 120 121 120 113 107 99 87 71 54 45 24 11 12 70 60 50 44 41 37 31 29 35 39 34 41
162 161 172 214 169 141 137 132 136 137 141 133 123 106 104 123 122 121 115 117 121 120 119 110 101 96 82 67 47 24 24 44 68 66 53 42 43 35 39 35 32 33 45 44